Location: Hopewell Observatory
(38.8698°N, 77.6988°W)
Time: 21:53:48
(UTC-04:00)

NOSS 3-2 (A) - Pass Details

Date: 26 May 2018
Orbit: 851 x 1357 km, 63.4° (Epoch: 11 June)

Event Time Altitude Azimuth Distance (km) Brightness Sun altitude
Rises 21:06:05 0° 225° (SW) 3,437 6.5 -7.5°
Reaches altitude 10° 21:08:31 10° 230° (SW) 2,533 5.9 -7.9°
Maximum altitude 21:14:16 57° 308° (NW) 1,098 4.3 -8.8°
Drops below altitude 10° 21:20:40 10° 27° (NNE) 2,810 6.1 -9.8°
Sets 21:23:30 0° 31° (NNE) 3,844 6.7 -10.2°
